Location: Unspecified
(49.8487°N, 0.0000°E)
Time: 01:10:16
(UTC+00:00)

OPS 7202 - Visible Passes

Search period start: 04 April 2026 00:00
Search period end: 14 April 2026 00:00
Orbit: 814 x 868 km, 98.6° (Epoch: 29 March)

Date Brightness Start Highest point End Pass type
(mag) Time Alt. Az. Time Alt. Az. Time Alt. Az.
4 Apr 10.5 04:39:02 10° ENE 04:40:26 11° NE 04:41:50 10° NNE visible
4 Apr 7.1 20:10:31 10° NNE 20:16:02 87° ESE 20:21:27 10° SSW visible
4 Apr 9.7 21:52:09 10° NNW 21:55:52 19° NW 21:59:32 10° W visible
5 Apr 7.1 19:55:57 10° NNE 20:01:26 68° ESE 20:06:48 10° S visible
5 Apr 9.4 21:37:15 10° N 21:41:29 23° WNW 21:45:39 10° WSW visible
6 Apr 7.3 19:41:27 10° NNE 19:46:48 52° E 19:52:02 10° S visible
6 Apr 9.1 21:22:26 10° N 21:27:04 29° WNW 21:31:38 10° WSW visible
7 Apr 7.6 19:26:59 10° NNE 19:32:08 40° E 19:37:10 10° SSE visible
7 Apr 8.7 21:07:40 10° N 21:12:37 36° WNW 21:17:28 10° SW visible
8 Apr 7.9 19:12:37 10° NNE 19:17:26 31° E 19:22:10 10° SSE visible
8 Apr 8.2 20:52:56 10° N 20:58:09 46° WNW 21:03:14 10° SW visible
9 Apr 7.8 20:38:17 10° N 20:43:37 58° WNW 20:48:52 10° SSW visible
9 Apr 10.1 22:20:58 10° NNW 22:23:03 12° NW 22:25:08 10° WNW visible
10 Apr 7.4 20:23:38 10° NNE 20:29:05 75° WNW 20:34:26 10° SSW visible
10 Apr 10.0 22:05:42 10° NNW 22:08:43 15° NW 22:11:44 10° W visible
11 Apr 10.6 04:37:47 10° ENE 04:38:58 11° NE 04:40:08 10° NE visible
11 Apr 7.1 20:09:02 10° NNE 20:14:30 86° ESE 20:19:52 10° SSW visible
11 Apr 9.8 21:50:40 10° NNW 21:54:21 19° NW 21:58:01 10° W visible
12 Apr 7.1 19:54:28 10° NNE 19:59:54 67° ESE 20:05:13 10° S visible
12 Apr 9.5 21:35:45 10° N 21:39:58 23° WNW 21:44:07 10° WSW visible
13 Apr 7.3 19:39:57 10° NNE 19:45:15 51° E 19:50:27 10° S visible
13 Apr 9.1 21:20:56 10° N 21:25:32 29° WNW 21:30:05 10° WSW visible
